******** Week 148 almanac for PRN-1 ******** ID: 1 Health: 0 Eccentricity: 0.01136302948 Time of Applicability(s): 319488 Orbital Inclination(rad): 0.9866516491 Rate of Right Ascen(r/s): -7.737465153e-09 SQRT(A) (m 1/2): 5153.626953 Right Ascen at Week(rad): -1.786625851 Argument of Perigee(rad): 0.8814719498 Mean Anom(rad): -2.99941256 Af0(s): 0.0003444291626 Af1(s/s): -1.091394e-11 week: 148 ******** Week 148 almanac for PRN-2 ******** ID: 2 Health: 0 Eccentricity: 0.02067708969 Time of Applicability(s): 319488 Orbital Inclination(rad): 0.9649961547 Rate of Right Ascen(r/s): -7.908900866e-09 SQRT(A) (m 1/2): 5153.64209 Right Ascen at Week(rad): -1.875798971 Argument of Perigee(rad): -1.445217005 Mean Anom(rad): -2.851004038 Af0(s): -0.0005140058838 Af1(s/s): 0 week: 148 ******** Week 148 almanac for PRN-3 ******** ID: 3 Health: 0 Eccentricity: 0.003885269165 Time of Applicability(s): 319488 Orbital Inclination(rad): 0.9725582006 Rate of Right Ascen(r/s): -7.703178011e-09 SQRT(A) (m 1/2): 5153.637207 Right Ascen at Week(rad): -0.7511412568 Argument of Perigee(rad): 0.9614438061 Mean Anom(rad): 2.126667747 Af0(s): -8.968724365e-05 Af1(s/s): -1.818989e-11 week: 148 ******** Week 148 almanac for PRN-4 ******** ID: 4 Health: 0 Eccentricity: 0.00169467926 Time of Applicability(s): 319488 Orbital Inclination(rad): 0.9614188635 Rate of Right Ascen(r/s): -7.806039438e-09 SQRT(A) (m 1/2): 5153.598633 Right Ascen at Week(rad): 0.3298257184 Argument of Perigee(rad): -3.066569534 Mean Anom(rad): -1.213403896 Af0(s): -0.0001507348633 Af1(s/s): 3.637979e-12 week: 148 ******** Week 148 almanac for PRN-5 ******** ID: 5 Health: 0 Eccentricity: 0.005878448486 Time of Applicability(s): 319488 Orbital Inclination(rad): 0.9595313481 Rate of Right Ascen(r/s): -7.851755628e-09 SQRT(A) (m 1/2): 5153.61377 Right Ascen at Week(rad): -0.7914648031 Argument of Perigee(rad): 1.009398682 Mean Anom(rad): -0.3468755254 Af0(s): -5.577189941e-05 Af1(s/s): 0 week: 148 ******** Week 148 almanac for PRN-6 ******** ID: 6 Health: 0 Eccentricity: 0.002685070038 Time of Applicability(s): 319488 Orbital Inclination(rad): 0.9860284694 Rate of Right Ascen(r/s): -7.737465153e-09 SQRT(A) (m 1/2): 5153.623535 Right Ascen at Week(rad): -1.794898337 Argument of Perigee(rad): -0.9659637314 Mean Anom(rad): -2.663835911 Af0(s): 0.0001552569092 Af1(s/s): 1.091394e-11 week: 148 ******** Week 148 almanac for PRN-7 ******** ID: 7 Health: 0 Eccentricity: 0.0155210495 Time of Applicability(s): 319488 Orbital Inclination(rad): 0.9506690138 Rate of Right Ascen(r/s): -7.886042771e-09 SQRT(A) (m 1/2): 5153.638672 Right Ascen at Week(rad): 1.348788186 Argument of Perigee(rad): -2.292481483 Mean Anom(rad): 2.615506903 Af0(s): 0.0002441904785 Af1(s/s): 3.637979e-12 week: 148 ******** Week 148 almanac for PRN-8 ******** ID: 8 Health: 0 Eccentricity: 0.007264137268 Time of Applicability(s): 319488 Orbital Inclination(rad): 0.96506806 Rate of Right Ascen(r/s): -8.011762293e-09 SQRT(A) (m 1/2): 5153.668945 Right Ascen at Week(rad): -2.866243478 Argument of Perigee(rad): 0.09942225338 Mean Anom(rad): -0.7285775829 Af0(s): -4.371311035e-05 Af1(s/s): 0 week: 148 ******** Week 148 almanac for PRN-9 ******** ID: 9 Health: 0 Eccentricity: 0.002265930176 Time of Applicability(s): 319488 Orbital Inclination(rad): 0.9544320604 Rate of Right Ascen(r/s): -7.897471818e-09 SQRT(A) (m 1/2): 5153.566895 Right Ascen at Week(rad): 0.2769318437 Argument of Perigee(rad): 1.870815406 Mean Anom(rad): -0.3739696109 Af0(s): -0.0002803668457 Af1(s/s): 0 week: 148 ******** Week 148 almanac for PRN-10 ******** ID: 10 Health: 0 Eccentricity: 0.007493019104 Time of Applicability(s): 319488 Orbital Inclination(rad): 0.9723844293 Rate of Right Ascen(r/s): -7.680319916e-09 SQRT(A) (m 1/2): 5153.632812 Right Ascen at Week(rad): -0.7539328322 Argument of Perigee(rad): -2.518273268 Mean Anom(rad): 1.255403735 Af0(s): -0.0002494661987 Af1(s/s): -1.091394e-11 week: 148 ******** Week 148 almanac for PRN-11 ******** ID: 11 Health: 255 Eccentricity: 0.000274181366 Time of Applicability(s): 319488 Orbital Inclination(rad): 0.9617544218 Rate of Right Ascen(r/s): -7.966046103e-09 SQRT(A) (m 1/2): 5153.721191 Right Ascen at Week(rad): -1.742706289 Argument of Perigee(rad): 2.866238984 Mean Anom(rad): -0.8728639057 Af0(s): -7.461375732e-05 Af1(s/s): 1.455192e-11 week: 148 ******** Week 148 almanac for PRN-12 ******** ID: 12 Health: 0 Eccentricity: 0.008668422699 Time of Applicability(s): 319488 Orbital Inclination(rad): 0.9703890559 Rate of Right Ascen(r/s): -7.771752296e-09 SQRT(A) (m 1/2): 5153.55957 Right Ascen at Week(rad): 2.461695743 Argument of Perigee(rad): 1.245525738 Mean Anom(rad): 1.959883289 Af0(s): -0.000133400354 Af1(s/s): -7.275958e-12 week: 148 ******** Week 148 almanac for PRN-13 ******** ID: 13 Health: 0 Eccentricity: 0.005797386169 Time of Applicability(s): 319488 Orbital Inclination(rad): 0.9688311066 Rate of Right Ascen(r/s): -7.748894201e-09 SQRT(A) (m 1/2): 5153.620117 Right Ascen at Week(rad): 0.4296382081 Argument of Perigee(rad): 0.9607427289 Mean Anom(rad): -1.307364339 Af0(s): 0.0002049994141 Af1(s/s): 7.275958e-12 week: 148 ******** Week 148 almanac for PRN-14 ******** ID: 14 Health: 0 Eccentricity: 0.001420974731 Time of Applicability(s): 319488 Orbital Inclination(rad): 0.9537789202 Rate of Right Ascen(r/s): -7.908900866e-09 SQRT(A) (m 1/2): 5153.598633 Right Ascen at Week(rad): 2.430495562 Argument of Perigee(rad): 3.021824184 Mean Anom(rad): 2.021792671 Af0(s): -6.481599121e-05 Af1(s/s): -3.637979e-12 week: 148 ******** Week 148 almanac for PRN-15 ******** ID: 15 Health: 0 Eccentricity: 0.01392602921 Time of Applicability(s): 319488 Orbital Inclination(rad): 0.9302958315 Rate of Right Ascen(r/s): -8.137481816e-09 SQRT(A) (m 1/2): 5153.67334 Right Ascen at Week(rad): 0.1710740616 Argument of Perigee(rad): 1.074356552 Mean Anom(rad): -1.728112124 Af0(s): -6.707701416e-05 Af1(s/s): 3.637979e-12 week: 148 ******** Week 148 almanac for PRN-16 ******** ID: 16 Health: 0 Eccentricity: 0.01273870468 Time of Applicability(s): 319488 Orbital Inclination(rad): 0.9703471111 Rate of Right Ascen(r/s): -7.760323248e-09 SQRT(A) (m 1/2): 5153.556152 Right Ascen at Week(rad): 2.480314734 Argument of Perigee(rad): 0.7064191255 Mean Anom(rad): 0.1059821185 Af0(s): -0.000369300415 Af1(s/s): -3.637979e-12 week: 148 ******** Week 148 almanac for PRN-17 ******** ID: 17 Health: 0 Eccentricity: 0.01363706589 Time of Applicability(s): 319488 Orbital Inclination(rad): 0.9801621913 Rate of Right Ascen(r/s): -7.863184676e-09 SQRT(A) (m 1/2): 5153.709961 Right Ascen at Week(rad): -2.784470617 Argument of Perigee(rad): -1.500207745 Mean Anom(rad): -0.8211388675 Af0(s): 0.0004529582642 Af1(s/s): 3.637979e-12 week: 148 ******** Week 148 almanac for PRN-18 ******** ID: 18 Health: 0 Eccentricity: 0.002094268799 Time of Applicability(s): 319488 Orbital Inclination(rad): 0.9704429849 Rate of Right Ascen(r/s): -7.897471818e-09 SQRT(A) (m 1/2): 5153.575684 Right Ascen at Week(rad): -1.778720383 Argument of Perigee(rad): 3.108317705 Mean Anom(rad): -2.80246905 Af0(s): 0.000192940625 Af1(s/s): -7.275958e-12 week: 148 ******** Week 148 almanac for PRN-19 ******** ID: 19 Health: 0 Eccentricity: 0.008960723877 Time of Applicability(s): 319488 Orbital Inclination(rad): 0.9788978556 Rate of Right Ascen(r/s): -7.874613723e-09 SQRT(A) (m 1/2): 5153.638184 Right Ascen at Week(rad): -2.739599058 Argument of Perigee(rad): 2.005923311 Mean Anom(rad): 1.587991069 Af0(s): 9.19482666e-05 Af1(s/s): 3.637979e-12 week: 148 ******** Week 148 almanac for PRN-20 ******** ID: 20 Health: 0 Eccentricity: 0.005185604095 Time of Applicability(s): 319488 Orbital Inclination(rad): 0.941674853 Rate of Right Ascen(r/s): -8.023191341e-09 SQRT(A) (m 1/2): 5153.690918 Right Ascen at Week(rad): -0.9053954587 Argument of Perigee(rad): 3.12666443 Mean Anom(rad): -1.974716014 Af0(s): 0.0004084914795 Af1(s/s): 0 week: 148 ******** Week 148 almanac for PRN-21 ******** ID: 21 Health: 0 Eccentricity: 0.02458333969 Time of Applicability(s): 319488 Orbital Inclination(rad): 0.9592437267 Rate of Right Ascen(r/s): -7.954617056e-09 SQRT(A) (m 1/2): 5153.536133 Right Ascen at Week(rad): -1.877393996 Argument of Perigee(rad): -1.008937289 Mean Anom(rad): -0.6398576168 Af0(s): 0.0001243562622 Af1(s/s): 0 week: 148 ******** Week 148 almanac for PRN-22 ******** ID: 22 Health: 0 Eccentricity: 0.01287269592 Time of Applicability(s): 319488 Orbital Inclination(rad): 0.96155069 Rate of Right Ascen(r/s): -7.817468486e-09 SQRT(A) (m 1/2): 5153.598633 Right Ascen at Week(rad): 0.3781232683 Argument of Perigee(rad): -1.87377888 Mean Anom(rad): -0.9498408293 Af0(s): 0.0001665620239 Af1(s/s): 7.275958e-12 week: 148 ******** Week 148 almanac for PRN-23 ******** ID: 23 Health: 0 Eccentricity: 0.001973628998 Time of Applicability(s): 319488 Orbital Inclination(rad): 0.9674229602 Rate of Right Ascen(r/s): -7.737465153e-09 SQRT(A) (m 1/2): 5153.653809 Right Ascen at Week(rad): -0.7787596521 Argument of Perigee(rad): 2.953212998 Mean Anom(rad): 2.57991338 Af0(s): 2.261022949e-06 Af1(s/s): -3.637979e-12 week: 148 ******** Week 148 almanac for PRN-24 ******** ID: 24 Health: 0 Eccentricity: 0.01233243942 Time of Applicability(s): 319488 Orbital Inclination(rad): 0.9341847124 Rate of Right Ascen(r/s): -8.068907531e-09 SQRT(A) (m 1/2): 5153.635742 Right Ascen at Week(rad): 1.266109019 Argument of Perigee(rad): 0.807072009 Mean Anom(rad): -2.702510878 Af0(s): 0.0002178118774 Af1(s/s): 0 week: 148 ******** Week 148 almanac for PRN-25 ******** ID: 25 Health: 0 Eccentricity: 0.01048135757 Time of Applicability(s): 319488 Orbital Inclination(rad): 0.9577696671 Rate of Right Ascen(r/s): -7.874613723e-09 SQRT(A) (m 1/2): 5153.665527 Right Ascen at Week(rad): 2.385046887 Argument of Perigee(rad): 0.9797976466 Mean Anom(rad): 1.709755662 Af0(s): 0.000223841272 Af1(s/s): 7.275958e-12 week: 148 ******** Week 148 almanac for PRN-26 ******** ID: 26 Health: 0 Eccentricity: 0.006860256195 Time of Applicability(s): 319488 Orbital Inclination(rad): 0.938582923 Rate of Right Ascen(r/s): -8.034620388e-09 SQRT(A) (m 1/2): 5153.64502 Right Ascen at Week(rad): 2.338160854 Argument of Perigee(rad): 0.3667082941 Mean Anom(rad): 1.057943781 Af0(s): 0.0001439517944 Af1(s/s): 3.637979e-12 week: 148 ******** Week 148 almanac for PRN-27 ******** ID: 27 Health: 0 Eccentricity: 0.01018953323 Time of Applicability(s): 319488 Orbital Inclination(rad): 0.9737626152 Rate of Right Ascen(r/s): -7.931758961e-09 SQRT(A) (m 1/2): 5153.603516 Right Ascen at Week(rad): -2.846872851 Argument of Perigee(rad): 0.6365196357 Mean Anom(rad): -0.777152268 Af0(s): 8.817989502e-05 Af1(s/s): 1.818989e-11 week: 148 ******** Week 148 almanac for PRN-29 ******** ID: 29 Health: 0 Eccentricity: 0.001816749573 Time of Applicability(s): 319488 Orbital Inclination(rad): 0.982169549 Rate of Right Ascen(r/s): -7.851755628e-09 SQRT(A) (m 1/2): 5153.708984 Right Ascen at Week(rad): -2.771475223 Argument of Perigee(rad): 2.263440335 Mean Anom(rad): -0.6565235541 Af0(s): -0.0003775908325 Af1(s/s): -3.637979e-12 week: 148 ******** Week 148 almanac for PRN-30 ******** ID: 30 Health: 0 Eccentricity: 0.005494117737 Time of Applicability(s): 319488 Orbital Inclination(rad): 0.9358265513 Rate of Right Ascen(r/s): -8.057478483e-09 SQRT(A) (m 1/2): 5153.521973 Right Ascen at Week(rad): 1.362014651 Argument of Perigee(rad): -2.747433745 Mean Anom(rad): 2.64929268 Af0(s): -0.0004047231079 Af1(s/s): -3.637979e-12 week: 148 ******** Week 148 almanac for PRN-31 ******** ID: 31 Health: 0 Eccentricity: 0.01045703888 Time of Applicability(s): 319488 Orbital Inclination(rad): 0.9548934531 Rate of Right Ascen(r/s): -7.851755628e-09 SQRT(A) (m 1/2): 5153.631348 Right Ascen at Week(rad): 1.366864143 Argument of Perigee(rad): 0.3749680466 Mean Anom(rad): 2.161932452 Af0(s): -0.0001296319824 Af1(s/s): -3.637979e-12 week: 148 ******** Week 148 almanac for PRN-32 ******** ID: 32 Health: 0 Eccentricity: 0.005550861359 Time of Applicability(s): 319488 Orbital Inclination(rad): 0.9582849887 Rate of Right Ascen(r/s): -7.851755628e-09 SQRT(A) (m 1/2): 5153.71582 Right Ascen at Week(rad): 0.2881071335 Argument of Perigee(rad): -2.357570055 Mean Anom(rad): -0.1256369964 Af0(s): -5.124985352e-05 Af1(s/s): -7.275958e-12 week: 148